Year,Month,Day,Hour,Minute,Value (Times are PST for windspeed in km/hr)
2014,02,16,00,00,30.90
2014,02,16,00,01,31.70
2014,02,16,00,02,27.40
2014,02,16,00,03,19.20
2014,02,16,00,04,26.60
2014,02,16,00,05,29.60
2014,02,16,00,06,16.60
2014,02,16,00,07,17.60
2014,02,16,00,08,16.00
2014,02,16,00,09,18.80
2014,02,16,00,10,18.90
2014,02,16,00,11,23.40
2014,02,16,00,12,21.50
2014,02,16,00,13,18.50
2014,02,16,00,14,26.80
2014,02,16,00,15,25.70
2014,02,16,00,16,22.80
2014,02,16,00,17,32.30
2014,02,16,00,18,29.20
2014,02,16,00,19,24.80
2014,02,16,00,20,26.80
2014,02,16,00,21,26.90
2014,02,16,00,22,22.50
2014,02,16,00,23,26.60
2014,02,16,00,24,19.60
2014,02,16,00,25,24.10
2014,02,16,00,26,21.00
2014,02,16,00,27,22.50
2014,02,16,00,28,25.00
2014,02,16,00,29,21.80
2014,02,16,00,30,24.70
2014,02,16,00,31,21.90
2014,02,16,00,32,23.80
2014,02,16,00,33,18.40
2014,02,16,00,34,18.90
2014,02,16,00,35,22.20
2014,02,16,00,36,21.00
2014,02,16,00,37,15.10
2014,02,16,00,38,18.70
2014,02,16,00,39,19.50
2014,02,16,00,40,17.20
2014,02,16,00,41,11.60
2014,02,16,00,42,11.90
2014,02,16,00,43,16.90
2014,02,16,00,44,14.40
2014,02,16,00,45,11.50
2014,02,16,00,46,12.80
2014,02,16,00,47,11.20
2014,02,16,00,48,16.60
2014,02,16,00,49,9.20
2014,02,16,00,50,7.40
2014,02,16,00,51,6.00
2014,02,16,00,52,6.60
2014,02,16,00,53,7.80
2014,02,16,00,54,8.00
2014,02,16,00,55,4.50
2014,02,16,00,56,2.50
2014,02,16,00,57,3.70
2014,02,16,00,58,6.70
2014,02,16,00,59,12.20
2014,02,16,01,00,12.00
2014,02,16,01,01,6.50
2014,02,16,01,02,4.70
2014,02,16,01,03,3.80
2014,02,16,01,04,2.60
2014,02,16,01,05,5.20
2014,02,16,01,06,2.00
2014,02,16,01,07,8.00
2014,02,16,01,08,4.90
2014,02,16,01,09,7.20
2014,02,16,01,10,3.80
2014,02,16,01,11,0.10
2014,02,16,01,12,0.00
2014,02,16,01,13,0.60
2014,02,16,01,14,0.70
2014,02,16,01,15,1.50
2014,02,16,01,16,0.60
2014,02,16,01,17,1.80
2014,02,16,01,18,0.00
2014,02,16,01,19,1.70
2014,02,16,01,20,0.10
2014,02,16,01,21,0.60
2014,02,16,01,22,1.40
2014,02,16,01,23,0.00
2014,02,16,01,24,0.90
2014,02,16,01,25,4.40
2014,02,16,01,26,5.50
2014,02,16,01,27,3.30
2014,02,16,01,28,1.00
2014,02,16,01,29,5.50
2014,02,16,01,30,6.70
2014,02,16,01,31,5.00
2014,02,16,01,32,4.20
2014,02,16,01,33,2.70
2014,02,16,01,34,3.40
2014,02,16,01,35,3.60
2014,02,16,01,36,4.00
2014,02,16,01,37,4.80
2014,02,16,01,38,3.70
2014,02,16,01,39,4.30
2014,02,16,01,40,1.80
2014,02,16,01,41,5.50
2014,02,16,01,42,6.70
2014,02,16,01,43,4.40
2014,02,16,01,44,3.70
2014,02,16,01,45,1.40
2014,02,16,01,46,4.30
2014,02,16,01,47,3.90
2014,02,16,01,48,4.70
2014,02,16,01,49,3.60
2014,02,16,01,50,1.00
2014,02,16,01,51,2.10
2014,02,16,01,52,1.60
2014,02,16,01,53,1.60
2014,02,16,01,54,0.40
2014,02,16,01,55,1.10
2014,02,16,01,56,3.20
2014,02,16,01,57,1.30
2014,02,16,01,58,5.50
2014,02,16,01,59,4.50
2014,02,16,02,00,0.70
2014,02,16,02,01,3.20
2014,02,16,02,02,1.80
2014,02,16,02,03,0.00
2014,02,16,02,04,0.00
2014,02,16,02,05,2.20
2014,02,16,02,06,1.00
2014,02,16,02,07,4.20
2014,02,16,02,08,4.30
2014,02,16,02,09,7.30
2014,02,16,02,10,5.00
2014,02,16,02,11,4.30
2014,02,16,02,12,7.10
2014,02,16,02,13,8.00
2014,02,16,02,14,2.90
2014,02,16,02,15,9.30
2014,02,16,02,16,9.70
2014,02,16,02,17,10.80
2014,02,16,02,18,6.00
2014,02,16,02,19,11.40
2014,02,16,02,20,9.80
2014,02,16,02,21,9.80
2014,02,16,02,22,12.10
2014,02,16,02,23,10.60
2014,02,16,02,24,18.20
2014,02,16,02,25,12.90
2014,02,16,02,26,12.10
2014,02,16,02,27,8.40
2014,02,16,02,28,7.90
2014,02,16,02,29,14.70
2014,02,16,02,30,14.00
2014,02,16,02,31,8.80
2014,02,16,02,32,7.90
2014,02,16,02,33,4.80
2014,02,16,02,34,9.10
2014,02,16,02,35,13.50
2014,02,16,02,36,15.70
2014,02,16,02,37,24.10
2014,02,16,02,38,23.40
2014,02,16,02,39,13.60
2014,02,16,02,40,21.50
2014,02,16,02,41,16.20
2014,02,16,02,42,23.40
2014,02,16,02,43,18.10
2014,02,16,02,44,19.30
2014,02,16,02,45,18.40
2014,02,16,02,46,19.40
2014,02,16,02,47,16.00
2014,02,16,02,48,23.70
2014,02,16,02,49,22.80
2014,02,16,02,50,19.70
2014,02,16,02,51,15.30
2014,02,16,02,52,10.80
2014,02,16,02,53,5.30
2014,02,16,02,54,5.00
2014,02,16,02,55,6.20
2014,02,16,02,56,7.20
2014,02,16,02,57,8.00
2014,02,16,02,58,7.30
2014,02,16,02,59,4.70
2014,02,16,03,00,7.10
2014,02,16,03,01,12.60
2014,02,16,03,02,6.70
2014,02,16,03,03,8.00
2014,02,16,03,04,7.70
2014,02,16,03,05,10.00
2014,02,16,03,06,14.60
2014,02,16,03,07,14.20
2014,02,16,03,08,15.00
2014,02,16,03,09,10.60
2014,02,16,03,10,16.80
2014,02,16,03,11,23.10
2014,02,16,03,12,21.80
2014,02,16,03,13,19.30
2014,02,16,03,14,17.80
2014,02,16,03,15,12.40
2014,02,16,03,16,16.20
2014,02,16,03,17,14.30
2014,02,16,03,18,12.30
2014,02,16,03,19,18.40
2014,02,16,03,20,14.30
2014,02,16,03,21,13.50
2014,02,16,03,22,6.40
2014,02,16,03,23,8.20
2014,02,16,03,24,23.30
2014,02,16,03,25,14.80
2014,02,16,03,26,7.80
2014,02,16,03,27,17.70
2014,02,16,03,28,11.00
2014,02,16,03,29,15.10
2014,02,16,03,30,15.10
2014,02,16,03,31,18.50
2014,02,16,03,32,13.50
2014,02,16,03,33,11.60
2014,02,16,03,34,9.50
2014,02,16,03,35,8.60
2014,02,16,03,36,14.60
2014,02,16,03,37,11.30
2014,02,16,03,38,9.30
2014,02,16,03,39,11.60
2014,02,16,03,40,12.70
2014,02,16,03,41,6.50
2014,02,16,03,42,6.40
2014,02,16,03,43,6.30
2014,02,16,03,44,9.70
2014,02,16,03,45,10.00
2014,02,16,03,46,8.30
2014,02,16,03,47,8.40
2014,02,16,03,48,7.50
2014,02,16,03,49,7.60
2014,02,16,03,50,2.70
2014,02,16,03,51,2.00
2014,02,16,03,52,3.90
2014,02,16,03,53,4.30
2014,02,16,03,54,10.50
2014,02,16,03,55,1.80
2014,02,16,03,56,0.10
2014,02,16,03,57,4.70
2014,02,16,03,58,6.80
2014,02,16,03,59,8.20
2014,02,16,04,00,7.10
2014,02,16,04,01,5.70
2014,02,16,04,02,2.00
2014,02,16,04,03,6.40
2014,02,16,04,04,6.00
2014,02,16,04,05,4.40
2014,02,16,04,06,7.20
2014,02,16,04,07,9.20
2014,02,16,04,08,6.50
2014,02,16,04,09,9.20
2014,02,16,04,10,7.00
2014,02,16,04,11,5.30
2014,02,16,04,12,7.20
2014,02,16,04,13,6.10
2014,02,16,04,14,5.00
2014,02,16,04,15,5.00
2014,02,16,04,16,8.00
2014,02,16,04,17,2.30
2014,02,16,04,18,1.00
2014,02,16,04,19,1.20
2014,02,16,04,20,6.60
2014,02,16,04,21,11.60
2014,02,16,04,22,7.20
2014,02,16,04,23,9.40
2014,02,16,04,24,11.30
2014,02,16,04,25,7.50
2014,02,16,04,26,7.70
2014,02,16,04,27,6.20
2014,02,16,04,28,13.80
2014,02,16,04,29,10.90
2014,02,16,04,30,9.10
2014,02,16,04,31,14.70
2014,02,16,04,32,13.60
2014,02,16,04,33,11.30
2014,02,16,04,34,18.40
2014,02,16,04,35,17.00
2014,02,16,04,36,14.10
2014,02,16,04,37,13.40
2014,02,16,04,38,11.70
2014,02,16,04,39,9.40
2014,02,16,04,40,11.70
2014,02,16,04,41,14.60
2014,02,16,04,42,16.70
2014,02,16,04,43,9.40
2014,02,16,04,44,6.00
2014,02,16,04,45,8.00
2014,02,16,04,46,12.10
2014,02,16,04,47,11.50
2014,02,16,04,48,13.40
2014,02,16,04,49,3.20
2014,02,16,04,50,8.30
2014,02,16,04,51,8.30
2014,02,16,04,52,9.10
2014,02,16,04,53,5.30
2014,02,16,04,54,6.20
2014,02,16,04,55,6.40
2014,02,16,04,56,1.50
2014,02,16,04,57,2.20
2014,02,16,04,58,0.90
2014,02,16,04,59,1.20
2014,02,16,05,00,1.50
2014,02,16,05,01,4.00
2014,02,16,05,02,4.10
2014,02,16,05,03,5.00
2014,02,16,05,04,1.60
2014,02,16,05,05,0.30
2014,02,16,05,06,1.40
2014,02,16,05,07,4.90
2014,02,16,05,08,4.80
2014,02,16,05,09,3.60
2014,02,16,05,10,5.10
2014,02,16,05,11,5.30
2014,02,16,05,12,4.20
2014,02,16,05,13,6.30
2014,02,16,05,14,5.00
2014,02,16,05,15,4.10
2014,02,16,05,16,2.70
2014,02,16,05,17,4.50
2014,02,16,05,18,3.40
2014,02,16,05,19,2.80
2014,02,16,05,20,0.60
2014,02,16,05,21,3.00
2014,02,16,05,22,5.00
2014,02,16,05,23,0.60
2014,02,16,05,24,0.00
2014,02,16,05,25,2.00
2014,02,16,05,26,3.00
2014,02,16,05,27,2.90
2014,02,16,05,28,3.10
2014,02,16,05,29,4.00
2014,02,16,05,30,2.30
2014,02,16,05,31,1.90
2014,02,16,05,32,3.30
2014,02,16,05,33,3.20
2014,02,16,05,34,3.40
2014,02,16,05,35,0.50
2014,02,16,05,36,1.60
2014,02,16,05,37,3.10
2014,02,16,05,38,0.50
2014,02,16,05,39,3.10
2014,02,16,05,40,2.00
2014,02,16,05,41,1.00
2014,02,16,05,42,2.10
2014,02,16,05,43,2.60
2014,02,16,05,44,3.90
2014,02,16,05,45,3.60
2014,02,16,05,46,4.70
2014,02,16,05,47,1.20
2014,02,16,05,48,0.10
2014,02,16,05,49,0.00
2014,02,16,05,50,0.10
2014,02,16,05,51,0.00
2014,02,16,05,52,0.00
2014,02,16,05,53,0.50
2014,02,16,05,54,0.00
2014,02,16,05,55,0.00
2014,02,16,05,56,0.00
2014,02,16,05,57,0.00
2014,02,16,05,58,0.00
2014,02,16,05,59,0.00
2014,02,16,06,00,0.00
2014,02,16,06,01,0.00
2014,02,16,06,02,0.10
2014,02,16,06,03,0.00
2014,02,16,06,04,0.00
2014,02,16,06,05,0.10
2014,02,16,06,06,0.00
2014,02,16,06,07,0.00
2014,02,16,06,08,0.00
2014,02,16,06,09,2.60
2014,02,16,06,10,2.50
2014,02,16,06,11,2.90
2014,02,16,06,12,0.50
2014,02,16,06,13,0.00
2014,02,16,06,14,0.00
2014,02,16,06,15,1.50
2014,02,16,06,16,5.30
2014,02,16,06,17,2.30
2014,02,16,06,18,2.20
2014,02,16,06,19,2.60
2014,02,16,06,20,1.90
2014,02,16,06,21,1.50
2014,02,16,06,22,0.10
2014,02,16,06,23,0.00
2014,02,16,06,24,2.20
2014,02,16,06,25,3.20
2014,02,16,06,26,5.10
2014,02,16,06,27,4.50
2014,02,16,06,28,3.90
2014,02,16,06,29,4.10
2014,02,16,06,30,6.70
2014,02,16,06,31,6.40
2014,02,16,06,32,4.60
2014,02,16,06,33,11.40
2014,02,16,06,34,8.60
2014,02,16,06,35,10.80
2014,02,16,06,36,9.60
2014,02,16,06,37,12.00
2014,02,16,06,38,13.40
2014,02,16,06,39,10.20
2014,02,16,06,40,4.70
2014,02,16,06,41,8.20
2014,02,16,06,42,7.80
2014,02,16,06,43,9.10
2014,02,16,06,44,11.00
2014,02,16,06,45,6.50
2014,02,16,06,46,5.40
2014,02,16,06,47,3.70
2014,02,16,06,48,5.60
2014,02,16,06,49,5.30
2014,02,16,06,50,6.50
2014,02,16,06,51,3.50
2014,02,16,06,52,2.60
2014,02,16,06,53,2.60
2014,02,16,06,54,4.20
2014,02,16,06,55,2.70
2014,02,16,06,56,5.50
2014,02,16,06,57,1.90
2014,02,16,06,58,1.50
2014,02,16,06,59,0.30
2014,02,16,07,00,1.50
2014,02,16,07,01,0.50
2014,02,16,07,02,0.00
2014,02,16,07,03,0.30
2014,02,16,07,04,0.00
2014,02,16,07,05,0.00
2014,02,16,07,06,0.50
2014,02,16,07,07,0.00
2014,02,16,07,08,0.00
2014,02,16,07,09,0.00
2014,02,16,07,10,0.00
2014,02,16,07,11,0.00
2014,02,16,07,12,0.00
2014,02,16,07,13,0.00
2014,02,16,07,14,0.00
2014,02,16,07,15,0.00
2014,02,16,07,16,0.00
2014,02,16,07,17,0.00
2014,02,16,07,18,0.00
2014,02,16,07,19,0.00
2014,02,16,07,20,0.00
2014,02,16,07,21,0.00
2014,02,16,07,22,0.00
2014,02,16,07,23,0.00
2014,02,16,07,24,0.00
2014,02,16,07,25,0.20
2014,02,16,07,26,0.00
2014,02,16,07,27,0.00
2014,02,16,07,28,0.00
2014,02,16,07,29,0.00
2014,02,16,07,30,0.00
2014,02,16,07,31,0.00
2014,02,16,07,32,0.00
2014,02,16,07,33,1.70
2014,02,16,07,34,2.90
2014,02,16,07,35,2.90
2014,02,16,07,36,0.40
2014,02,16,07,37,1.30
2014,02,16,07,38,0.40
2014,02,16,07,39,4.30
2014,02,16,07,40,4.50
2014,02,16,07,41,6.40
2014,02,16,07,42,3.80
2014,02,16,07,43,3.70
2014,02,16,07,44,1.90
2014,02,16,07,45,4.20
2014,02,16,07,46,3.20
2014,02,16,07,47,2.80
2014,02,16,07,48,2.80
2014,02,16,07,49,4.10
2014,02,16,07,50,4.50
2014,02,16,07,51,4.80
2014,02,16,07,52,5.50
2014,02,16,07,53,4.30
2014,02,16,07,54,5.50
2014,02,16,07,55,4.30
2014,02,16,07,56,4.10
2014,02,16,07,57,3.80
2014,02,16,07,58,1.20
2014,02,16,07,59,1.30
2014,02,16,08,00,2.60
2014,02,16,08,01,4.50
2014,02,16,08,02,3.40
2014,02,16,08,03,5.20
2014,02,16,08,04,4.10
2014,02,16,08,05,4.70
2014,02,16,08,06,1.50
2014,02,16,08,07,2.10
2014,02,16,08,08,4.80
2014,02,16,08,09,2.90
2014,02,16,08,10,2.00
2014,02,16,08,11,2.70
2014,02,16,08,12,4.20
2014,02,16,08,13,3.10
2014,02,16,08,14,4.60
2014,02,16,08,15,4.30
2014,02,16,08,16,3.60
2014,02,16,08,17,1.10
2014,02,16,08,18,2.60
2014,02,16,08,19,4.20
2014,02,16,08,20,2.10
2014,02,16,08,21,3.80
2014,02,16,08,22,1.90
2014,02,16,08,23,3.70
2014,02,16,08,24,0.60
2014,02,16,08,25,5.90
2014,02,16,08,26,5.40
2014,02,16,08,27,4.20
2014,02,16,08,28,2.80
2014,02,16,08,29,5.00
2014,02,16,08,30,3.80
2014,02,16,08,31,0.00
2014,02,16,08,32,2.00
2014,02,16,08,33,3.10
2014,02,16,08,34,2.30
2014,02,16,08,35,0.00
2014,02,16,08,36,0.00
2014,02,16,08,37,2.00
2014,02,16,08,38,0.60
2014,02,16,08,39,0.00
2014,02,16,08,40,0.00
2014,02,16,08,41,2.30
2014,02,16,08,42,3.40
2014,02,16,08,43,5.20
2014,02,16,08,44,5.60
2014,02,16,08,45,4.60
2014,02,16,08,46,4.60
2014,02,16,08,47,4.50
2014,02,16,08,48,6.40
2014,02,16,08,49,4.20
2014,02,16,08,50,1.30
2014,02,16,08,51,1.50
2014,02,16,08,52,5.50
2014,02,16,08,53,4.40
2014,02,16,08,54,3.80
2014,02,16,08,55,3.30
2014,02,16,08,56,1.00
2014,02,16,08,57,2.00
2014,02,16,08,58,1.40
2014,02,16,08,59,2.30
2014,02,16,09,00,1.30
2014,02,16,09,01,3.20
2014,02,16,09,02,3.80
2014,02,16,09,03,3.60
2014,02,16,09,04,0.80
2014,02,16,09,05,2.00
2014,02,16,09,06,6.40
2014,02,16,09,07,8.70
2014,02,16,09,08,5.90
2014,02,16,09,09,4.30
2014,02,16,09,10,4.80
2014,02,16,09,11,5.00
2014,02,16,09,12,6.40
2014,02,16,09,13,7.00
2014,02,16,09,14,5.20
2014,02,16,09,15,3.50
2014,02,16,09,16,1.20
2014,02,16,09,17,1.20
2014,02,16,09,18,0.70
2014,02,16,09,19,6.00
2014,02,16,09,20,6.90
2014,02,16,09,21,2.30
2014,02,16,09,22,1.90
2014,02,16,09,23,3.20
2014,02,16,09,24,0.90
2014,02,16,09,25,1.40
2014,02,16,09,26,3.10
2014,02,16,09,27,0.30
2014,02,16,09,28,0.00
2014,02,16,09,29,0.00
2014,02,16,09,30,0.00
2014,02,16,09,31,0.90
2014,02,16,09,32,2.10
2014,02,16,09,33,1.40
2014,02,16,09,34,3.80
2014,02,16,09,35,0.10
2014,02,16,09,36,0.00
2014,02,16,09,37,0.00
2014,02,16,09,38,0.00
2014,02,16,09,39,0.00
2014,02,16,09,40,0.00
2014,02,16,09,41,0.60
2014,02,16,09,42,3.40
2014,02,16,09,43,2.60
2014,02,16,09,44,0.10
2014,02,16,09,45,0.00
2014,02,16,09,46,0.00
2014,02,16,09,47,3.60
2014,02,16,09,48,3.70
2014,02,16,09,49,1.50
2014,02,16,09,50,2.60
2014,02,16,09,51,2.50
2014,02,16,09,52,6.60
2014,02,16,09,53,8.30
2014,02,16,09,54,6.10
2014,02,16,09,55,7.50
2014,02,16,09,56,9.40
2014,02,16,09,57,8.10
2014,02,16,09,58,8.00
2014,02,16,09,59,11.60
2014,02,16,10,00,8.90
2014,02,16,10,01,12.60
2014,02,16,10,02,9.10
2014,02,16,10,03,6.20
2014,02,16,10,04,5.90
2014,02,16,10,05,6.90
2014,02,16,10,06,5.10
2014,02,16,10,07,6.40
2014,02,16,10,08,8.30
2014,02,16,10,09,6.20
2014,02,16,10,10,7.50
2014,02,16,10,11,10.70
2014,02,16,10,12,11.60
2014,02,16,10,13,10.80
2014,02,16,10,14,8.30
2014,02,16,10,15,8.50
2014,02,16,10,16,9.00
2014,02,16,10,17,9.70
2014,02,16,10,18,11.20
2014,02,16,10,19,7.60
2014,02,16,10,20,7.00
2014,02,16,10,21,5.00
2014,02,16,10,22,14.60
2014,02,16,10,23,10.10
2014,02,16,10,24,12.90
2014,02,16,10,25,9.60
2014,02,16,10,26,9.00
2014,02,16,10,27,11.90
2014,02,16,10,28,12.10
2014,02,16,10,29,11.40
2014,02,16,10,30,12.20
2014,02,16,10,31,12.00
2014,02,16,10,32,7.00
2014,02,16,10,33,4.60
2014,02,16,10,34,9.00
2014,02,16,10,35,8.00
2014,02,16,10,36,5.80
2014,02,16,10,37,4.80
2014,02,16,10,38,9.70
2014,02,16,10,39,8.60
2014,02,16,10,40,7.70
2014,02,16,10,41,7.80
2014,02,16,10,42,10.00
2014,02,16,10,43,6.70
2014,02,16,10,44,7.40
2014,02,16,10,45,6.40
2014,02,16,10,46,6.90
2014,02,16,10,47,9.60
2014,02,16,10,48,8.50
2014,02,16,10,49,11.90
2014,02,16,10,50,8.60
2014,02,16,10,51,7.80
2014,02,16,10,52,11.20
2014,02,16,10,53,8.50
2014,02,16,10,54,6.00
2014,02,16,10,55,13.10
2014,02,16,10,56,16.20
2014,02,16,10,57,15.70
2014,02,16,10,58,12.80
2014,02,16,10,59,15.40
2014,02,16,11,00,15.20
2014,02,16,11,01,8.90
2014,02,16,11,02,8.40
2014,02,16,11,03,15.00
2014,02,16,11,04,13.60
2014,02,16,11,05,12.10
2014,02,16,11,06,12.30
2014,02,16,11,07,10.80
2014,02,16,11,08,10.80
2014,02,16,11,09,17.00
2014,02,16,11,10,12.60
2014,02,16,11,11,12.00
2014,02,16,11,12,10.70
2014,02,16,11,13,10.20
2014,02,16,11,14,12.60
2014,02,16,11,15,9.00
2014,02,16,11,16,13.20
2014,02,16,11,17,8.60
2014,02,16,11,18,8.60
2014,02,16,11,19,7.10
2014,02,16,11,20,15.60
2014,02,16,11,21,15.00
2014,02,16,11,22,14.50
2014,02,16,11,23,16.70
2014,02,16,11,24,10.50
2014,02,16,11,25,16.70
2014,02,16,11,26,17.10
2014,02,16,11,27,18.90
2014,02,16,11,28,13.80
2014,02,16,11,29,20.70
2014,02,16,11,30,15.50
2014,02,16,11,31,14.50
2014,02,16,11,32,12.70
2014,02,16,11,33,11.90
2014,02,16,11,34,12.10
2014,02,16,11,35,19.60
2014,02,16,11,36,17.70
2014,02,16,11,37,19.40
2014,02,16,11,38,20.10
2014,02,16,11,39,14.60
2014,02,16,11,40,11.90
2014,02,16,11,41,12.90
2014,02,16,11,42,15.40
2014,02,16,11,43,19.80
2014,02,16,11,44,18.70
2014,02,16,11,45,13.70
2014,02,16,11,46,13.80
2014,02,16,11,47,17.70
2014,02,16,11,48,15.50
2014,02,16,11,49,12.80
2014,02,16,11,50,14.20
2014,02,16,11,51,13.00
2014,02,16,11,52,20.40
2014,02,16,11,53,22.20
2014,02,16,11,54,16.60
2014,02,16,11,55,18.70
2014,02,16,11,56,17.40
2014,02,16,11,57,11.30
2014,02,16,11,58,17.20
2014,02,16,11,59,14.60
2014,02,16,12,00,16.90
2014,02,16,12,01,16.20
2014,02,16,12,02,15.70
2014,02,16,12,03,13.00
2014,02,16,12,04,14.10
2014,02,16,12,05,16.40
2014,02,16,12,06,9.60
2014,02,16,12,07,17.00
2014,02,16,12,08,12.50
2014,02,16,12,09,13.30
2014,02,16,12,10,19.50
2014,02,16,12,11,19.60
2014,02,16,12,12,18.40
2014,02,16,12,13,13.90
2014,02,16,12,14,22.40
2014,02,16,12,15,20.50
2014,02,16,12,16,21.70
2014,02,16,12,17,18.30
2014,02,16,12,18,18.40
2014,02,16,12,19,23.10
2014,02,16,12,20,23.40
2014,02,16,12,21,22.20
2014,02,16,12,22,26.30
2014,02,16,12,23,22.00
2014,02,16,12,24,27.30
2014,02,16,12,25,25.20
2014,02,16,12,26,22.60
2014,02,16,12,27,19.50
2014,02,16,12,28,12.50
2014,02,16,12,29,12.70
2014,02,16,12,30,13.80
2014,02,16,12,31,13.90
2014,02,16,12,32,12.80
2014,02,16,12,33,20.30
2014,02,16,12,34,18.70
2014,02,16,12,35,13.20
2014,02,16,12,36,13.40
2014,02,16,12,37,15.40
2014,02,16,12,38,10.50
2014,02,16,12,39,13.20
2014,02,16,12,40,8.70
2014,02,16,12,41,15.40
2014,02,16,12,42,18.00
2014,02,16,12,43,12.30
2014,02,16,12,44,13.90
2014,02,16,12,45,15.10
2014,02,16,12,46,14.60
2014,02,16,12,47,16.50
2014,02,16,12,48,17.80
2014,02,16,12,49,16.10
2014,02,16,12,50,12.30
2014,02,16,12,51,16.00
2014,02,16,12,52,18.10
2014,02,16,12,53,10.20
2014,02,16,12,54,12.80
2014,02,16,12,55,9.00
2014,02,16,12,56,19.20
2014,02,16,12,57,12.30
2014,02,16,12,58,16.90
2014,02,16,12,59,11.10
2014,02,16,13,00,18.10
2014,02,16,13,01,17.00
2014,02,16,13,02,19.20
2014,02,16,13,03,11.20
2014,02,16,13,04,15.60
2014,02,16,13,05,15.70
2014,02,16,13,06,16.20
2014,02,16,13,07,11.30
2014,02,16,13,08,15.10
2014,02,16,13,09,18.20
2014,02,16,13,10,16.70
2014,02,16,13,11,11.60
2014,02,16,13,12,10.40
2014,02,16,13,13,11.10
2014,02,16,13,14,7.90
2014,02,16,13,15,14.10
2014,02,16,13,16,11.60
2014,02,16,13,17,8.10
2014,02,16,13,18,13.90
2014,02,16,13,19,12.60
2014,02,16,13,20,15.40
2014,02,16,13,21,14.30
2014,02,16,13,22,14.30
2014,02,16,13,23,17.00
2014,02,16,13,24,8.00
2014,02,16,13,25,12.20
2014,02,16,13,26,17.60
2014,02,16,13,27,15.90
2014,02,16,13,28,16.00
2014,02,16,13,29,16.10
2014,02,16,13,30,11.00
2014,02,16,13,31,13.30
2014,02,16,13,32,20.60
2014,02,16,13,33,18.70
2014,02,16,13,34,13.40
2014,02,16,13,35,17.00
2014,02,16,13,36,10.20
2014,02,16,13,37,11.50
2014,02,16,13,38,13.20
2014,02,16,13,39,10.20
2014,02,16,13,40,8.60
2014,02,16,13,41,15.30
2014,02,16,13,42,11.00
2014,02,16,13,43,12.50
2014,02,16,13,44,12.80
2014,02,16,13,45,13.10
2014,02,16,13,46,7.00
2014,02,16,13,47,12.90
2014,02,16,13,48,5.60
2014,02,16,13,49,5.10
2014,02,16,13,50,7.80
2014,02,16,13,51,10.00
2014,02,16,13,52,7.40
2014,02,16,13,53,14.70
2014,02,16,13,54,7.80
2014,02,16,13,55,13.30
2014,02,16,13,56,8.10
2014,02,16,13,57,11.90
2014,02,16,13,58,14.30
2014,02,16,13,59,8.50
2014,02,16,14,00,5.60
2014,02,16,14,01,12.30
2014,02,16,14,02,6.90
2014,02,16,14,03,7.10
2014,02,16,14,04,6.90
2014,02,16,14,05,7.70
2014,02,16,14,06,11.80
2014,02,16,14,07,12.40
2014,02,16,14,08,10.10
2014,02,16,14,09,12.30
2014,02,16,14,10,10.90
2014,02,16,14,11,13.20
2014,02,16,14,12,12.60
2014,02,16,14,13,11.30
2014,02,16,14,14,11.40
2014,02,16,14,15,11.00
2014,02,16,14,16,12.90
2014,02,16,14,17,13.60
2014,02,16,14,18,12.00
2014,02,16,14,19,16.70
2014,02,16,14,20,13.90
2014,02,16,14,21,12.70
2014,02,16,14,22,8.60
2014,02,16,14,23,12.20
2014,02,16,14,24,10.20
2014,02,16,14,25,10.50
2014,02,16,14,26,10.30
2014,02,16,14,27,9.30
2014,02,16,14,28,4.70
2014,02,16,14,29,7.80
2014,02,16,14,30,6.60
2014,02,16,14,31,6.30
2014,02,16,14,32,15.40
2014,02,16,14,33,12.90
2014,02,16,14,34,17.80
2014,02,16,14,35,16.60
2014,02,16,14,36,10.40
2014,02,16,14,37,19.50
2014,02,16,14,38,9.70
2014,02,16,14,39,8.10
2014,02,16,14,40,11.40
2014,02,16,14,41,9.00
2014,02,16,14,42,16.40
2014,02,16,14,43,22.60
2014,02,16,14,44,13.00
2014,02,16,14,45,18.60
2014,02,16,14,46,18.10
2014,02,16,14,47,14.60
2014,02,16,14,48,12.30
2014,02,16,14,49,7.60
2014,02,16,14,50,17.00
2014,02,16,14,51,17.70
2014,02,16,14,52,20.40
2014,02,16,14,53,20.50
2014,02,16,14,54,20.80
2014,02,16,14,55,28.40
2014,02,16,14,56,19.80
2014,02,16,14,57,17.50
2014,02,16,14,58,26.00
2014,02,16,14,59,17.60
2014,02,16,15,00,20.60
2014,02,16,15,01,18.00
2014,02,16,15,02,15.60
2014,02,16,15,03,12.30
2014,02,16,15,04,22.10
2014,02,16,15,05,16.80
2014,02,16,15,06,12.60
2014,02,16,15,07,8.90
2014,02,16,15,08,15.70
2014,02,16,15,09,15.70
2014,02,16,15,10,12.70
2014,02,16,15,11,13.00
2014,02,16,15,12,19.00
2014,02,16,15,13,21.70
2014,02,16,15,14,24.40
2014,02,16,15,15,23.90
2014,02,16,15,16,12.50
2014,02,16,15,17,16.80
2014,02,16,15,18,14.30
2014,02,16,15,19,20.60
2014,02,16,15,20,19.70
2014,02,16,15,21,16.20
2014,02,16,15,22,22.00
2014,02,16,15,23,23.30
2014,02,16,15,24,16.20
2014,02,16,15,25,13.90
2014,02,16,15,26,10.70
2014,02,16,15,27,19.60
2014,02,16,15,28,19.70
2014,02,16,15,29,19.50
2014,02,16,15,30,16.60
2014,02,16,15,31,14.20
2014,02,16,15,32,15.20
2014,02,16,15,33,18.30
2014,02,16,15,34,15.70
2014,02,16,15,35,14.90
2014,02,16,15,36,19.40
2014,02,16,15,37,19.80
2014,02,16,15,38,16.80
2014,02,16,15,39,16.40
2014,02,16,15,40,18.30
2014,02,16,15,41,15.10
2014,02,16,15,42,15.70
2014,02,16,15,43,26.90
2014,02,16,15,44,15.20
2014,02,16,15,45,12.40
2014,02,16,15,46,11.40
2014,02,16,15,47,18.10
2014,02,16,15,48,23.00
2014,02,16,15,49,27.20
2014,02,16,15,50,18.30
2014,02,16,15,51,16.30
2014,02,16,15,52,21.10
2014,02,16,15,53,17.40
2014,02,16,15,54,20.10
2014,02,16,15,55,15.20
2014,02,16,15,56,20.10
2014,02,16,15,57,21.40
2014,02,16,15,58,24.60
2014,02,16,15,59,22.80
2014,02,16,16,00,23.30
2014,02,16,16,01,18.40
2014,02,16,16,02,17.20
2014,02,16,16,03,17.00
2014,02,16,16,04,21.00
2014,02,16,16,05,19.50
2014,02,16,16,06,15.10
2014,02,16,16,07,22.00
2014,02,16,16,08,14.80
2014,02,16,16,09,21.90
2014,02,16,16,10,18.70
2014,02,16,16,11,21.70
2014,02,16,16,12,23.20
2014,02,16,16,13,23.40
2014,02,16,16,14,12.90
2014,02,16,16,15,12.30
2014,02,16,16,16,24.00
2014,02,16,16,17,21.80
2014,02,16,16,18,18.60
2014,02,16,16,19,24.90
2014,02,16,16,20,23.80
2014,02,16,16,21,24.70
2014,02,16,16,22,23.00
2014,02,16,16,23,25.50
2014,02,16,16,24,19.80
2014,02,16,16,25,24.50
2014,02,16,16,26,24.50
2014,02,16,16,27,25.50
2014,02,16,16,28,18.90
2014,02,16,16,29,19.70
2014,02,16,16,30,21.70
2014,02,16,16,31,21.10
2014,02,16,16,32,31.00
2014,02,16,16,33,22.80
2014,02,16,16,34,29.00
2014,02,16,16,35,22.10
2014,02,16,16,36,21.50
2014,02,16,16,37,21.70
2014,02,16,16,38,21.10
2014,02,16,16,39,27.90
2014,02,16,16,40,26.60
2014,02,16,16,41,26.80
2014,02,16,16,42,21.60
2014,02,16,16,43,25.50
2014,02,16,16,44,21.60
2014,02,16,16,45,22.90
2014,02,16,16,46,27.90
2014,02,16,16,47,23.20
2014,02,16,16,48,19.50
2014,02,16,16,49,23.00
2014,02,16,16,50,12.00
2014,02,16,16,51,14.80
2014,02,16,16,52,15.70
2014,02,16,16,53,18.80
2014,02,16,16,54,28.40
2014,02,16,16,55,23.90
2014,02,16,16,56,21.90
2014,02,16,16,57,18.60
2014,02,16,16,58,14.80
2014,02,16,16,59,23.30
2014,02,16,17,00,26.50
2014,02,16,17,01,17.10
2014,02,16,17,02,26.50
2014,02,16,17,03,25.50
2014,02,16,17,04,26.00
2014,02,16,17,05,23.00
2014,02,16,17,06,24.10
2014,02,16,17,07,25.50
2014,02,16,17,08,28.40
2014,02,16,17,09,22.90
2014,02,16,17,10,22.50
2014,02,16,17,11,24.40
2014,02,16,17,12,22.70
2014,02,16,17,13,22.80
2014,02,16,17,14,22.70
2014,02,16,17,15,24.20
2014,02,16,17,16,20.50
2014,02,16,17,17,25.50
2014,02,16,17,18,26.10
2014,02,16,17,19,19.30
2014,02,16,17,20,28.50
2014,02,16,17,21,26.40
2014,02,16,17,22,26.00
2014,02,16,17,23,30.40
2014,02,16,17,24,26.20
2014,02,16,17,25,27.10
2014,02,16,17,26,21.30
2014,02,16,17,27,28.30
2014,02,16,17,28,22.50
2014,02,16,17,29,24.60
2014,02,16,17,30,24.90
2014,02,16,17,31,21.10
2014,02,16,17,32,23.90
2014,02,16,17,33,22.40
2014,02,16,17,34,24.30
2014,02,16,17,35,29.10
2014,02,16,17,36,25.40
2014,02,16,17,37,27.00
2014,02,16,17,38,20.60
2014,02,16,17,39,26.00
2014,02,16,17,40,30.20
2014,02,16,17,41,24.40
2014,02,16,17,42,25.80